Date String (YYYY-MM-DD hh:mm:ss) UTC,Instrument flags,Ambient pressure (hPa),Sample flow (lpm),Bypass flow (lpm),Sample temperature (°C),Ambient temperature (°C),ASC tube jacket temperature (°C),LED temperature (°C),Box temperature (°C),Sample RH (%),Span deviation,Mass concentration (μg/m³),Mass concentration (μg/m³),Mass concentration (μg/m³)
DateTimeUTC,F1_M11,P_M11,Q1_M11,Q2_M11,T1_M11,T2_M11,T3_M11,T4_M11,T5_M11,U1_M11,ZSPAN_M11,X2_M11,X0_M11,X1_M11
2022-06-24 07:00:00,,0824.8,4.99,0.00,29.5,28.5,00.0,38.2,31.4,16.2,0000.0,0005.68,0016.54,0004.67
2022-06-24 07:01:00,,0824.8,4.99,0.00,29.5,28.5,00.0,38.2,31.4,16.2,0000.0,0005.68,0016.33,0004.67
2022-06-24 07:02:00,,0824.8,5.00,0.00,29.5,28.6,00.0,38.2,31.5,16.1,0000.0,0005.69,0016.09,0004.68
2022-06-24 07:03:00,,0824.8,4.99,0.00,29.5,28.6,00.0,38.3,31.5,16.1,0000.0,0005.68,0016.14,0004.68
2022-06-24 07:04:00,,0824.7,5.00,0.00,29.5,28.2,00.0,38.2,31.4,16.0,0000.0,0005.70,0016.33,0004.70
2022-06-24 07:05:00,,0824.7,5.00,0.00,29.5,27.5,00.0,38.2,31.2,16.1,0000.0,0005.70,0016.08,0004.70
2022-06-24 07:06:00,,0824.7,5.00,0.00,29.4,27.4,00.0,38.2,31.1,16.2,0000.0,0005.75,0016.20,0004.71
2022-06-24 07:07:00,,0824.7,5.00,0.00,29.4,27.4,00.0,38.2,31.1,16.3,0000.0,0005.76,0016.10,0004.70
2022-06-24 07:08:00,,0824.6,4.99,0.00,29.3,27.5,00.0,38.2,31.1,16.3,0000.0,0005.69,0015.96,0004.69
2022-06-24 07:09:00,,0824.6,5.00,0.00,29.3,27.6,00.0,38.2,31.1,16.2,0000.0,0005.67,0015.56,0004.67
2022-06-24 07:10:00,,0824.6,5.00,0.00,29.3,27.7,00.0,38.1,31.1,16.2,0000.0,0005.69,0015.07,0004.68
2022-06-24 07:11:00,,0824.6,5.01,0.00,29.3,27.8,00.0,38.1,31.2,16.2,0000.0,0005.76,0013.80,0004.69
2022-06-24 07:12:00,,0824.6,5.00,0.00,29.3,28.0,00.0,38.2,31.2,16.2,0000.0,0005.74,0012.74,0004.69
2022-06-24 07:13:00,,0824.6,5.00,0.00,29.4,28.1,00.0,38.2,31.2,16.2,0000.0,0005.70,0011.57,0004.68
2022-06-24 07:14:00,,0824.7,4.99,0.00,29.4,28.2,00.0,38.2,31.3,16.3,0000.0,0005.68,0010.64,0004.66
2022-06-24 07:15:00,,0824.7,5.00,0.00,29.4,28.3,00.0,38.2,31.3,16.3,0000.0,0005.63,0010.31,0004.65
2022-06-24 07:16:00,,0824.7,5.01,0.00,29.4,28.4,00.0,38.2,31.4,16.4,0000.0,0005.65,0010.93,0004.63
2022-06-24 07:17:00,,0824.6,5.00,0.00,29.4,28.4,00.0,38.2,31.4,16.4,0000.0,0005.62,0010.94,0004.61
2022-06-24 07:18:00,,0824.7,5.00,0.00,29.5,28.5,00.0,38.2,31.4,16.5,0000.0,0005.60,0010.59,0004.60
2022-06-24 07:19:00,,0824.6,5.00,0.00,29.5,28.6,00.0,38.2,31.4,16.4,0000.0,0005.60,0010.52,0004.59
2022-06-24 07:20:00,,0824.6,5.01,0.00,29.5,28.6,00.0,38.3,31.5,16.6,0000.0,0005.54,0010.39,0004.57
2022-06-24 07:21:00,,0824.6,5.01,0.00,29.6,28.7,00.0,38.3,31.5,16.4,0000.0,0005.49,0010.34,0004.54
2022-06-24 07:22:00,,0824.7,5.00,0.00,29.6,28.6,00.0,38.3,31.5,16.4,0000.0,0005.40,0010.89,0004.51
2022-06-24 07:23:00,,0824.6,5.00,0.00,29.6,27.9,00.0,38.2,31.3,16.4,0000.0,0005.36,0010.81,0004.48
2022-06-24 07:24:00,,0824.7,5.00,0.00,29.5,27.5,00.0,38.2,31.2,16.4,0000.0,0005.33,0010.71,0004.47
2022-06-24 07:25:00,,0824.7,5.00,0.00,29.4,27.4,00.0,38.2,31.1,16.5,0000.0,0005.30,0011.07,0004.45
2022-06-24 07:26:00,,0824.7,5.01,0.00,29.4,27.4,00.0,38.2,31.1,16.7,0000.0,0005.27,0011.66,0004.43
2022-06-24 07:27:00,,0824.6,5.01,0.00,29.3,27.5,00.0,38.2,31.1,17.0,0000.0,0005.23,0011.15,0004.40
2022-06-24 07:28:00,,0824.6,5.00,0.00,29.3,27.6,00.0,38.2,31.1,17.3,0000.0,0005.13,0011.43,0004.35
2022-06-24 07:29:00,,0824.6,4.99,0.00,29.3,27.7,00.0,38.2,31.2,17.5,0000.0,0005.00,0011.84,0004.27
2022-06-24 07:30:00,,0824.7,5.00,0.00,29.3,27.8,00.0,38.2,31.2,17.7,0000.0,0004.94,0012.20,0004.20
2022-06-24 07:31:00,,0824.6,5.00,0.00,29.3,28.0,00.0,38.2,31.2,17.8,0000.0,0004.88,0012.22,0004.13
2022-06-24 07:32:00,,0824.6,5.00,0.00,29.4,28.1,00.0,38.2,31.2,17.9,0000.0,0004.81,0012.12,0004.06
2022-06-24 07:33:00,,0824.7,4.99,0.00,29.4,28.1,00.0,38.2,31.3,18.0,0000.0,0004.72,0011.26,0003.98
2022-06-24 07:34:00,,0824.7,4.99,0.00,29.4,28.2,00.0,38.2,31.3,17.9,0000.0,0004.61,0010.99,0003.91
2022-06-24 07:35:00,,0824.8,5.00,0.00,29.4,28.3,00.0,38.2,31.3,18.0,0000.0,0004.50,0011.22,0003.84
2022-06-24 07:36:00,,0824.8,5.01,0.00,29.4,28.4,00.0,38.2,31.4,18.0,0000.0,0004.40,0010.72,0003.75
2022-06-24 07:37:00,,0824.8,5.01,0.00,29.5,28.4,00.0,38.2,31.4,18.0,0000.0,0004.30,0009.83,0003.67
2022-06-24 07:38:00,,0824.8,4.99,0.00,29.5,28.5,00.0,38.3,31.4,18.0,0000.0,0004.20,0009.79,0003.59
2022-06-24 07:39:00,,0824.8,5.00,0.00,29.5,28.5,00.0,38.3,31.4,18.0,0000.0,0004.16,0009.47,0003.53
2022-06-24 07:40:00,,0824.8,4.99,0.00,29.5,28.6,00.0,38.3,31.5,18.1,0000.0,0004.14,0008.97,0003.51
2022-06-24 07:41:00,,0824.8,5.00,0.00,29.6,27.9,00.0,38.1,31.5,18.1,0000.0,0004.08,0009.10,0003.48
2022-06-24 07:42:00,,0824.8,5.00,0.00,29.6,28.7,00.0,38.3,31.5,18.1,0000.0,0004.03,0009.55,0003.45
2022-06-24 07:43:00,,0824.8,5.00,0.00,29.6,28.5,00.0,38.3,31.5,18.0,0000.0,0003.97,0009.56,0003.43
2022-06-24 07:44:00,,0824.8,5.00,0.00,29.5,27.8,00.0,38.3,31.3,17.9,0000.0,0003.91,0009.44,0003.40
2022-06-24 07:45:00,,0824.7,5.01,0.00,29.5,27.4,00.0,38.2,31.2,18.1,0000.0,0003.90,0009.46,0003.36
2022-06-24 07:46:00,,0824.8,5.01,0.00,29.4,27.3,00.0,38.2,31.1,18.2,0000.0,0003.86,0008.98,0003.33
2022-06-24 07:47:00,,0824.7,5.00,0.00,29.4,27.4,00.0,38.2,31.1,18.3,0000.0,0003.82,0009.36,0003.31
2022-06-24 07:48:00,,0824.7,5.00,0.00,29.4,27.5,00.0,38.2,31.1,18.4,0000.0,0003.81,0009.40,0003.30
2022-06-24 07:49:00,,0824.8,5.01,0.00,29.3,27.6,00.0,38.2,31.1,18.4,0000.0,0003.77,0009.18,0003.30
2022-06-24 07:50:00,,0824.7,5.00,0.00,29.3,27.7,00.0,38.2,31.2,18.4,0000.0,0003.71,0008.69,0003.28
2022-06-24 07:51:00,,0824.7,5.01,0.00,29.3,27.9,00.0,38.2,31.2,18.5,0000.0,0003.69,0008.60,0003.27
2022-06-24 07:52:00,,0824.7,5.00,0.00,29.4,28.0,00.0,38.2,31.2,18.5,0000.0,0003.68,0007.83,0003.26
2022-06-24 07:53:00,,0824.7,5.00,0.00,29.4,28.1,00.0,38.2,31.2,18.4,0000.0,0003.68,0007.27,0003.25
2022-06-24 07:54:00,,0824.7,5.00,0.00,29.4,28.1,00.0,38.2,31.3,18.2,0000.0,0003.69,0007.38,0003.25
2022-06-24 07:55:00,,0824.7,5.00,0.00,29.4,28.2,00.0,38.2,31.3,18.2,0000.0,0003.72,0007.50,0003.25
2022-06-24 07:56:00,,0824.7,5.00,0.00,29.4,28.3,00.0,38.2,31.3,18.1,0000.0,0003.71,0007.86,0003.25
2022-06-24 07:57:00,,0824.7,5.00,0.00,29.4,28.3,00.0,38.2,31.3,18.1,0000.0,0003.71,0008.16,0003.25
2022-06-24 07:58:00,,0824.7,5.00,0.00,29.4,28.4,00.0,38.2,31.4,18.0,0000.0,0003.71,0007.78,0003.24
2022-06-24 07:59:00,,0824.7,5.00,0.00,29.5,28.4,00.0,38.3,31.4,17.9,0000.0,0003.68,0007.58,0003.23
